Weather History for Houma, LA

Change the Weather History Date:

Sunday, May 11, 2014

  Actual Average Record
Temperature  
Mean Temperature 76 °F -  
Max Temperature 84 °F 82 °F 90 °F (1955)
Min Temperature 69 °F 64 °F 50 °F (1961)
Cooling Degree Days 12    
Growing Degree Days 26 (Base 50)    
Moisture  
Dew Point 71 °F    
Average Humidity 84    
Maximum Humidity 94    
Minimum Humidity 66    
Precipitation  
Precipitation 0.00 in - - ()
Sea Level Pressure  
Sea Level Pressure 29.97 in    
Wind  
Wind Speed 7 mph (SE)    
Max Wind Speed 23 mph    
Max Gust Speed 23 mph    
Visibility 6 miles    
Events      
Averages and records for this station are not official NWS values.
T = Trace of Precipitation, MM = Missing Value Source: NWS Daily Summary

Daily Weather History Graph

Daily Weather History Graph

Search for Another Location

Airport:

Trip Planner

Search our weather history database for the weather conditions in past years. The results will help you decide how hot, cold, wet, or windy it might be!

Date:

Astronomy

May. 11, 2014 Rise Set
Actual Time 6:12 AM CDT 7:45 PM CDT
Civil Twilight 5:46 AM CDT 8:11 PM CDT
Nautical Twilight 5:15 AM CDT 8:42 PM CDT
Astronomical Twilight 4:43 AM CDT 9:14 PM CDT
Moon 4:55 PM CDT (5/11) 4:02 AM CDT (5/11)
Length of Visible Light 14h 24m
Length of Day
13h 33m
Waxing Gibbous, 89% of the Moon is Illuminated
May 11
Waxing Gibbous
May 14
Full
May 21
Last Quarter
May 28
New
Jun 5
First Quarter

Hourly Weather History & Observations

Time (CDT) Temp. Heat Index Dew Point Humidity Pressure Visibility Wind Dir Wind Speed Gust Speed Precip Events Conditions
12:15 AM 73.4 °F - 70.0 °F 89% 29.96 in 5.0 mi Calm Calm - N/A   Scattered Clouds
12:35 AM 72.5 °F - 69.4 °F 90% 29.96 in 4.0 mi East 3.5 mph - N/A   Scattered Clouds
12:55 AM 71.8 °F - 68.7 °F 90% 29.96 in 4.0 mi Calm Calm - N/A   Scattered Clouds
1:15 AM 71.8 °F - 69.1 °F 91% 29.97 in 4.0 mi ESE 5.8 mph - N/A   Clear
1:35 AM 72.5 °F - 70.0 °F 92% 29.96 in 7.0 mi SE 6.9 mph - N/A   Clear
1:55 AM 73.0 °F - 69.8 °F 90% 29.97 in 7.0 mi SE 5.8 mph - N/A   Clear
2:15 AM 72.9 °F - 69.3 °F 88% 29.97 in 7.0 mi SE 5.8 mph - N/A   Clear
2:35 AM 72.9 °F - 69.1 °F 88% 29.97 in 7.0 mi SE 6.9 mph - N/A   Clear
2:55 AM 72.9 °F - 68.9 °F 87% 29.96 in 7.0 mi SE 6.9 mph - N/A   Clear
3:15 AM 72.5 °F - 68.9 °F 88% 29.96 in 7.0 mi SE 4.6 mph - N/A   Clear
3:35 AM 71.8 °F - 68.2 °F 88% 29.96 in 7.0 mi ESE 3.5 mph - N/A   Clear
3:55 AM 70.7 °F - 67.5 °F 89% 29.96 in 7.0 mi Calm Calm - N/A   Clear
4:15 AM 69.4 °F - 66.6 °F 91% 29.96 in 5.0 mi ESE 3.5 mph - N/A   Clear
4:40 AM 70.3 °F - 67.6 °F 91% 29.96 in 5.0 mi Calm Calm - N/A   Clear
4:55 AM 69.8 °F - 67.1 °F 91% 29.96 in 7.0 mi East 3.5 mph - N/A   Clear
5:15 AM 69.1 °F - 66.2 °F 91% 29.96 in 7.0 mi Calm Calm - N/A   Clear
5:35 AM 69.3 °F - 66.2 °F 90% 29.96 in 7.0 mi East 4.6 mph - N/A   Clear
5:55 AM 69.4 °F - 65.8 °F 88% 29.97 in 7.0 mi ENE 3.5 mph - N/A   Clear
6:55 AM 71.6 °F - 69.8 °F 94% 29.99 in 6.0 mi ESE 4.6 mph - N/A   Clear
7:50 AM 78.8 °F - 71.6 °F 78% 30.01 in 6.0 mi ESE 11.5 mph - N/A   Mostly Cloudy
9:50 AM 82.4 °F 87.2 °F 71.6 °F 70% 30.02 in 6.0 mi SE 9.2 mph - N/A   Mostly Cloudy
10:50 AM 80.6 °F 85.4 °F 73.4 °F 79% 30.00 in 4.0 mi SE 15.0 mph - N/A   Mostly Cloudy
11:50 AM 82.4 °F 88.2 °F 73.4 °F 74% 30.01 in 5.0 mi SE 15.0 mph - N/A   Mostly Cloudy
12:55 PM 84.2 °F 90.9 °F 73.4 °F 70% 29.98 in 6.0 mi ESE 20.7 mph - N/A   Mostly Cloudy
1:50 PM 80.6 °F 83.9 °F 69.8 °F 70% 29.98 in 6.0 mi SE 23.0 mph - N/A   Mostly Cloudy
2:50 PM 84.2 °F 89.6 °F 71.6 °F 66% 29.98 in 6.0 mi SE 23.0 mph - N/A   Mostly Cloudy
5:50 PM 78.8 °F - 73.4 °F 83% 29.95 in 7.0 mi SE 11.5 mph 23.0 mph N/A   Mostly Cloudy
6:50 PM 80.6 °F 85.4 °F 73.4 °F 79% 29.96 in 7.0 mi SE 13.8 mph - N/A   Mostly Cloudy
7:15 PM 79.7 °F - 73.0 °F 80% 29.96 in - SE 15.0 mph 19.6 mph N/A   Overcast
7:35 PM 79.0 °F - 72.5 °F 80% 29.96 in 4.0 mi SE 15.0 mph - N/A   Haze
7:55 PM 78.4 °F - 72.1 °F 81% 29.96 in 5.0 mi SE 12.7 mph - N/A   Haze
8:15 PM 78.1 °F - 72.1 °F 82% 29.96 in 7.0 mi SE 12.7 mph 17.3 mph N/A   Scattered Clouds
8:35 PM 77.9 °F - 72.0 °F 82% 29.96 in 7.0 mi SE 12.7 mph 19.6 mph N/A   Mostly Cloudy
8:55 PM 77.9 °F - 72.0 °F 82% 29.96 in 7.0 mi SE 13.8 mph 18.4 mph N/A   Scattered Clouds
9:15 PM 77.5 °F - 72.1 °F 83% 29.96 in 7.0 mi SE 10.4 mph - N/A   Clear
9:35 PM 77.4 °F - 72.3 °F 84% 29.96 in 7.0 mi SE 12.7 mph - N/A   Scattered Clouds
9:55 PM 77.4 °F - 72.5 °F 85% 29.97 in 7.0 mi SE 12.7 mph - N/A   Scattered Clouds
10:15 PM 77.4 °F - 72.5 °F 85% 29.98 in 7.0 mi SE 11.5 mph 16.1 mph N/A   Scattered Clouds
10:35 PM 77.5 °F - 72.5 °F 84% 29.99 in 7.0 mi SE 12.7 mph 17.3 mph N/A   Mostly Cloudy
10:55 PM 77.7 °F - 72.7 °F 84% 29.99 in 7.0 mi SE 12.7 mph 17.3 mph N/A   Overcast
11:15 PM 77.4 °F - 72.5 °F 85% 29.99 in 5.0 mi SE 10.4 mph - N/A   Overcast
11:35 PM 77.4 °F - 72.5 °F 85% 29.99 in 5.0 mi SE 9.2 mph 16.1 mph N/A   Overcast
11:55 PM 77.4 °F - 72.5 °F 85% 29.99 in 7.0 mi SE 10.4 mph 16.1 mph N/A   Overcast